Location: Azul
(36.7830°S, 59.8500°W)
Time: 18:26:46
(UTC-03:00)

FO-29 - Pass Details

Date: 25 October 2021
Orbit: 799 x 1322 km, 98.5° (Epoch: 05 December)

Event Time Altitude Azimuth Distance (km) Brightness Sun altitude
Rises 00:08:29 0° 186° (S) 4,077 13.6 -40.4°
Reaches altitude 10° 00:12:15 10° 206° (SSW) 3,195 12.8 -40.5°
Maximum altitude 00:16:19 16° 239° (WSW) 2,835 12.2 -40.7°
Enters shadow 00:20:06 11° 270° (W) 3,238 12.2 -40.8°
